Zurück zum Katalog

MAGION 4

LostWissenschaftHEO
NORAD 23646·PAYLOAD·🇨🇿 Czechia

Gestartet Aug 2, 1995 von Plesetsk Cosmodrome

Loading…

Nächste Überflüge (nächste 24 Stunden)

TLE

VeraltetSource: Space-Track

Epoche: Apr 9, 1997, 00:00 UTC

1 23646U 95039F   97099.00000000 -.00001302 +00000-0 +10000-3 0  9992
2 23646 070.3422 248.3458 7715642 328.5234 102.6257 00.26402863001616

Verfolge MAGION 4 in Echtzeit mit AllMySat

Download on the App Store